Tracking 25734 objects as of 26-May-2022
HD Live streaming from Space Station
objects crossing your sky now

SL-12 DEB

Track SL-12 DEB now!
10-day predictions


NORAD ID: 42981
Int'l Code: 2010-041W
Perigee: 539.2 km
Apogee: 17,736.8 km
Inclination: 65.5 °
Period: 320.4 minutes
Semi major axis: 15508 km
RCS: Unknown
Launch date: September 2, 2010
Source: Commonwealth of Independent States (former USSR) (CIS)
Launch site: TYURATAM MISSILE AND SPACE COMPLEX (TTMTR)

Note: This is SATELLITE DEBRIS
aabbcc
Your satellite tracking list
Your tracking list is empty




NASA's NSSDC Master Catalog

Two Line Element Set (TLE):
1 42981U 10041W   22143.22043314  .00000738  00000-0  23402-2 0  9992
2 42981  65.5344 245.2835 5544383 328.2285  12.0976  4.49497688 76922
Source of the keplerian elements: AFSPC